This is the latest recevied weather packets stored in our database for station/object N2VUZ-1. If no packets are shown the sender has not sent any weather packets the latest 10 day(s).
| Time | Temp. | Humidity | Pressure | Rain* | Wind** | Luminosity | Snow |
|---|---|---|---|---|---|---|---|
| 1788202461 | 30° C | 74% | 1017.5 hPa | 0 mm | - | - | - |
| 1788202161 | 30° C | 66% | 1017.7 hPa | 0 mm | - | - | - |
| 1788201861 | 30° C | 69% | 1017.5 hPa | 0 mm | - | - | - |
| 1788201561 | 30.56° C | 68% | 1017.5 hPa | 0 mm | - | - | - |
| 1788201261 | 30.56° C | 69% | 1017.5 hPa | 0 mm | - | - | - |
| 1788200961 | 30.56° C | 65% | 1017.5 hPa | 0 mm | - | - | - |
| 1788200661 | 30.56° C | 65% | 1017.6 hPa | 0 mm | - | - | - |
| 1788200361 | 30.56° C | 66% | 1017.6 hPa | 0 mm | - | - | - |
| 1788200061 | 31.11° C | 69% | 1017.6 hPa | 0 mm | - | - | - |
| 1788199761 | 31.11° C | 66% | 1017.8 hPa | 0 mm | - | - | - |
| 1788199461 | 31.11° C | 63% | 1017.7 hPa | 0 mm | - | - | - |
| 1788199161 | 31.11° C | 64% | 1017.8 hPa | 0 mm | - | - | - |
| 1788198861 | 31.67° C | 64% | 1017.8 hPa | 0 mm | - | - | - |
| 1788198561 | 30.56° C | 66% | 1017.8 hPa | 0 mm | - | - | - |
| 1788198261 | 30.56° C | 67% | 1017.8 hPa | 0 mm | - | - | - |
| 1788197961 | 30° C | 67% | 1017.8 hPa | 0 mm | - | - | - |
| 1788197661 | 30.56° C | 69% | 1018 hPa | 0 mm | - | - | - |
| 1788197361 | 30° C | 70% | 1018 hPa | 0 mm | - | - | - |
| 1788197061 | 30.56° C | 68% | 1017.9 hPa | 0 mm | - | - | - |
| 1788196761 | 30.56° C | 68% | 1017.8 hPa | 0 mm | - | - | - |
| 1788196461 | 30° C | 67% | 1017.9 hPa | 0 mm | - | - | - |
| 1788196161 | 30.56° C | 66% | 1018 hPa | 0 mm | - | - | - |
| 1788195861 | 30.56° C | 66% | 1018.1 hPa | 0 mm | - | - | - |
| 1788195561 | 30.56° C | 65% | 1018.2 hPa | 0 mm | - | - | - |
| 1788195261 | 30.56° C | 66% | 1017.8 hPa | 0 mm | - | - | - |
* Rain latest hour (hover to see other rain measurements)
** Current wind speed in m/s (hover to see current wind gust speed)